Starlink 30769

operational
NORAD ID: 58138 Int'l Des: 2023-162 Owner: SPXS Country: US Constellation: starlink
LEOCIRCULAR

Über Starlink 30769

Beschreibung wird geladen...

Live-Position

3D-Globus wird geladen...

Nächste Überflüge

Höhenverlauf

Altitude vs Time

uPlot chart will show altitude changes over time

Zweizeiliger Elementsatz

1 58138U 23162W 25304.50875639 .00000250 00000-0 33604-4 0 9993
2 58138 43.0025 115.3677 0001295 260.5194 99.5502 15.02535573112869
Epoch: 31. Okt. 2025 • Age: 15 hours

Aktueller Status

Höhe 565.7 km
Geschwindigkeit 7.58 km/s
Subsatellitenpunkt -27.99°S, 127.64°W
Startdatum 22. Okt. 2023
Alter 2 years
Typ internet

Technische Details

Klassifizierung Payload
Masse 730.00 kg
Trockenmasse 700.00 kg
Gesamtmasse 730.00 kg
Länge 0.30 m
Durchmesser 4.10 m
Spannweite 29.00 m
Form Box + pan
Hersteller SPXS
Bus-Typ Starlink V2M
Phasenstatus In Orbit
Besitzer/Staat SPXS/US

Große Konstellationen

Loading constellations...